This demonstration page uses our WeatherBlox Daily Observations layout. Learn more.

Hourly Observations for December 22, 2017

Temp ( °F °C ) Dew Point ( °F °C ) Humidity (%) Winds ( mph kmh ) Pressure ( in mb ) Visibility ( mi km ) Precip ( " mm )
12:53 am 00:53 Cloudy 55 12.8 50 10 83 83 VRB 3 6 29.92 1013 10 16.0934 0 0
1:53 am 01:53 Cloudy 56 13.3 50 10 81 81 SW 9 15 29.93 1013 10 16.0934 0 0
2:53 am 02:53 Cloudy with Light Rain 56 13.3 50 10 81 81 SW 8 13 29.94 1014 10 16.0934 0 0.0254
3:45 am 03:45 Cloudy 55 12.8 49 9.4 80 80 SW 7 11 29.94 1014 10 16.0934 0 0.0254
3:53 am 03:53 Cloudy 55 12.8 49 9.4 80 80 SW 8 13 29.93 1014 10 16.0934 0 0.0254
4:12 am 04:12 Cloudy 55 12.8 49 9.4 80 80 SW 10 17 29.94 1014 10 16.0934 0 0
4:53 am 04:53 Cloudy 55 12.8 49 9.4 80 80 SW 8 13 29.94 1014 10 16.0934 0 0
5:53 am 05:53 Cloudy 54 12.2 50 10 87 87 WSW 8 13 29.96 1015 10 16.0934 0 0.0254
6:31 am 06:31 Cloudy 53 11.7 51 10.6 93 93 WSW 8 13 30 1016 7 11.26538 0 0
6:53 am 06:53 Cloudy 53 11.7 51 10.6 93 93 VRB 5 7 29.99 1016 9 14.48406 0 0
7:50 am 07:50 Cloudy 54 12 52 11 94 94 SW 3 6 30 1016 7 11.26538 0 0
7:53 am 07:53 Cloudy 53 11.7 51 10.6 93 93 SSW 5 7 29.98 1015 7 11.26538 0 0
8:53 am 08:53 Cloudy 53 11.7 52 11.1 96 96 SSW 3 6 30 1016 7 11.26538 0 0
9:53 am 09:53 Cloudy 54 12.2 52 11.1 93 93 SW 5 7 30 1016 7 11.26538 0 0
10:19 am 10:19 Cloudy 55 12.8 52 11.1 90 90 SSW 6 9 30.03 1017 9 14.48406 0 0
10:53 am 10:53 Cloudy 55 12.8 52 11.1 90 90 SW 7 11 30.01 1016 10 16.0934 0 0
11:53 am 11:53 Cloudy 57 13.9 52 11.1 83 83 SSW 7 11 29.98 1015 10 16.0934 0 0
12:53 pm 12:53 Cloudy 57 13.9 52 11.1 83 83 SW 7 11 29.96 1015 10 16.0934 0 0
1:53 pm 13:53 Cloudy 57 13.9 52 11.1 83 83 SSW 6 9 29.96 1015 10 16.0934 0 0
2:31 pm 14:31 Cloudy 57 13.9 52 11.1 83 83 SW 3 6 29.97 1015 10 16.0934 0 0
2:53 pm 14:53 Cloudy 57 13.9 52 11.1 83 83 SSW 5 7 29.96 1015 10 16.0934 0 0
3:53 pm 15:53 Cloudy 57 13.9 53 11.7 87 87 SSW 7 11 29.98 1015 10 16.0934 0 0
4:12 pm 16:12 Cloudy 57 13.9 53 11.7 87 87 SSW 6 9 29.97 1015 10 16.0934 0 0
4:53 pm 16:53 Cloudy 56 13.3 53 11.7 90 90 SSW 3 6 29.97 1015 9 14.48406 0 0
5:53 pm 17:53 Cloudy 55 12.8 53 11.7 93 93 Calm 29.97 1015 9 14.48406 0 0
6:07 pm 18:07 Cloudy 55 12.8 53 11.7 93 93 SSW 3 6 30 1016 9 14.48406 0 0
6:53 pm 18:53 Cloudy with Mist and Fog 55 12.8 53 11.7 93 93 VRB 3 6 29.98 1015 5 8.0467 0 0
7:02 pm 19:02 Cloudy with Mist and Fog 55 12.8 53 11.7 93 93 S 5 7 30 1016 5 8.0467 0 0
7:13 pm 19:13 Cloudy with Mist and Fog 54 12.2 53 11.7 97 97 S 3 6 30 1016 5 8.0467 0 0
7:45 pm 19:45 Cloudy with Mist and Fog 54 12.2 54 12.2 100 100 SSW 3 6 30 1016 5 8.0467 0 0
7:53 pm 19:53 Cloudy with Mist and Fog 54 12.2 54 12.2 100 100 S 3 6 29.98 1015 5 8.0467 0 0
8:29 pm 20:29 Cloudy with Light Rain 54 12.2 54 12.2 100 100 Calm 30 1016 3 4.82802 0 0.0254
8:37 pm 20:37 Cloudy with Mist and Fog 54 12.2 54 12.2 100 100 Calm 30 1016 2.5 4.02335 0 0.0254
8:43 pm 20:43 Cloudy with Light Rain 53 11.7 53 11.7 100 100 Calm 30 1016 1.75 2.816345 0 0.0254
8:49 pm 20:49 Cloudy with Light Rain 54 12 54 12 100 100 Calm 30 1016 0.75 1.207005 0 0.0254
8:50 pm 20:50 Cloudy with Light Rain 53 11.7 53 11.7 100 100 Calm 29.96 1015 0.75 1.207005 0 0.0254
9:03 pm 21:03 Cloudy with Light Rain 52 11.1 52 11.1 100 100 Calm 29.97 1015 0.25 0.402335 0.01 0.254
9:27 pm 21:27 Cloudy with Light Rain 52 11.1 52 11.1 100 100 Calm 29.97 1015 0.5 0.80467 0.02 0.508
9:53 pm 21:53 Cloudy with Light Rain 52 11.1 52 11.1 100 100 Calm 29.95 1014 0.5 0.80467 0.02 0.508
10:16 pm 22:16 Cloudy with Light Rain 52 11.1 52 11.1 100 100 Calm 29.97 1015 0.5 0.80467 0.02 0.508
10:33 pm 22:33 Cloudy with Light Rain 52 11.1 52 11.1 100 100 Calm 29.97 1015 1 1.60934 0.02 0.508
10:40 pm 22:40 Cloudy with Light Rain 52 11.1 52 11.1 100 100 Calm 29.97 1015 0.75 1.207005 0.02 0.508
10:53 pm 22:53 Cloudy with Light Rain 52 11.1 52 11.1 100 100 Calm 29.95 1014 0.5 0.80467 0.03 0.762
11:13 pm 23:13 Cloudy with Rain 52 11.1 52 11.1 100 100 N 5 7 29.97 1015 1.75 2.816345 0.02 0.508
11:19 pm 23:19 Cloudy with Light Rain 52 11.1 52 11.1 100 100 N 6 9 29.97 1015 2.5 4.02335 0.02 0.508
11:30 pm 23:30 Cloudy with Rain 52 11.1 52 11.1 100 100 NNW 6 9 29.97 1015 3 4.82802 0.04 1.016
11:53 pm 23:53 Cloudy with Light Rain 51 10.6 51 10.6 100 100 NNW 9 15 29.94 1014 5 8.0467 0.05 1.27

Powered by AerisWeather